Starlink 31041

operational
NORAD ID: 58537 Int'l Des: 2023-192 Owner: SPXS Country: US Constellation: starlink
LEOCIRCULAR

About Starlink 31041

Description loading...

Live Position

Loading 3D Globe...

Upcoming Passes

Altitude History

Altitude vs Time

uPlot chart will show altitude changes over time

Two-Line Element Set

1 58537U 23192G 25304.28576460 .00001339 00000-0 57327-4 0 9991
2 58537 53.1594 303.7667 0001283 73.8492 286.2650 15.30190219106171
Epoch: Oct 31, 2025 • Age: 13 hours

Current Status

Altitude 476.8 km
Velocity 7.63 km/s
Sub-Earth Point -5.20°S, 33.45°W
Launch Date Dec 8, 2023
Age 1.8 years
Type internet

Technical Details

Classification Payload
Mass 730.00 kg
Dry Mass 700.00 kg
Total Mass 730.00 kg
Length 0.30 m
Diameter 4.10 m
Span 29.00 m
Shape Box + pan
Manufacturer SPXS
Bus Type Starlink V2M
Phase Status In Orbit
Owner/State SPXS/US

Large Constellations

Loading constellations...